Hoquiam, WA

6:56 PM PDT on August 31, 2016 (GMT -0700)
Bowerman

Weather History for KHQM - March, 2013

Change the Weather History Date:

Sunday, March 17, 2013

  Actual Average Record
Temperature  
Mean Temperature 43 °F 46 °F  
Max Temperature 48 °F 53 °F 65 °F (1956)
Min Temperature 38 °F 40 °F 27 °F (1971)
Degree Days  
Heating Degree Days 22 19  
Month to date heating degree days 339 332  
Cooling Degree Days 0 0  
Month to date cooling degree days 0 0  
Year to date cooling degree days 0 0  
Moisture  
Dew Point 35 °F    
Average Humidity 73    
Maximum Humidity 86    
Minimum Humidity 60    
Precipitation  
Precipitation 0.10 in 0.23 in 1.30 in (1975)
Month to date precipitation 3.90 3.86  
Year to date precipitation 16.90 21.40  
Sea Level Pressure  
Sea Level Pressure 30.22 in    
Wind  
Wind Speed 12 mph (West)    
Max Wind Speed 26 mph    
Max Gust Speed 31 mph    
Visibility 10 miles    
Events Rain    
T = Trace of Precipitation, MM = Missing Value Source: NWS Daily Summary

Daily Weather History Graph

Daily Weather History Graph

Search for Another Location

Airport or City:

Trip Planner

Search our weather history database for the weather conditions in past years. The results will help you decide how hot, cold, wet, or windy it might be!

Date:

Astronomy

Mar. 17, 2013 Rise Set
Actual Time 7:23 AM PDT 7:24 PM PDT
Civil Twilight 6:53 AM PDT 7:55 PM PDT
Nautical Twilight 6:18 AM PDT 8:30 PM PDT
Astronomical Twilight 5:41 AM PDT 9:07 PM PDT
Moon 10:19 AM PDT (3/17) 12:58 AM PDT (3/17)
Length of Visible Light 13h 01m
Length of Day
12h 00m
Waxing Crescent, 32% of the Moon is Illuminated
Mar 17
Waxing Crescent
Mar 19
First Quarter
Mar 27
Full
Apr 2
Last Quarter
Apr 10
New

Hourly Weather History & Observations

Time (PDT) Temp. Windchill Dew Point Humidity Pressure Visibility Wind Dir Wind Speed Gust Speed Precip Events Conditions
12:53 AM 42.1 °F 33.3 °F 35.1 °F 76% 30.09 in 9.0 mi West 19.6 mph 29.9 mph 0.00 in Rain Light Rain
1:53 AM 42.1 °F 33.6 °F 33.1 °F 70% 30.10 in 10.0 mi West 18.4 mph 24.2 mph 0.00 in   Mostly Cloudy
2:53 AM 42.1 °F 34.5 °F 34.0 °F 73% 30.12 in 10.0 mi West 15.0 mph 23.0 mph N/A   Mostly Cloudy
3:53 AM 43.0 °F 35.1 °F 34.0 °F 71% 30.14 in 10.0 mi West 17.3 mph - N/A   Clear
4:53 AM 43.0 °F 34.5 °F 33.1 °F 68% 30.16 in 10.0 mi West 19.6 mph 25.3 mph N/A   Mostly Cloudy
5:53 AM 42.1 °F 35.2 °F 34.0 °F 73% 30.18 in 10.0 mi West 12.7 mph - 0.00 in   Scattered Clouds
6:48 AM 39.2 °F 33.6 °F 33.8 °F 81% 30.19 in 10.0 mi WNW 8.1 mph 23.0 mph 0.01 in   Overcast
6:53 AM 39.0 °F 33.4 °F 33.1 °F 79% 30.20 in 10.0 mi WNW 8.1 mph - 0.01 in   Overcast
7:53 AM 42.1 °F 36.6 °F 32.0 °F 67% 30.22 in 10.0 mi West 9.2 mph - N/A   Mostly Cloudy
8:53 AM 37.9 °F 34.4 °F 33.1 °F 83% 30.24 in 8.0 mi WNW 4.6 mph 21.9 mph 0.00 in Rain Light Rain
9:53 AM 44.1 °F 37.1 °F 35.1 °F 71% 30.24 in 10.0 mi WSW 15.0 mph - 0.01 in   Mostly Cloudy
10:53 AM 45.0 °F 37.4 °F 33.1 °F 63% 30.25 in 10.0 mi WSW 18.4 mph 21.9 mph N/A   Partly Cloudy
11:53 AM 46.0 °F 40.2 °F 33.1 °F 61% 30.25 in 10.0 mi WSW 12.7 mph - N/A   Mostly Cloudy
12:53 PM 46.0 °F 39.0 °F 33.1 °F 61% 30.26 in 10.0 mi WSW 17.3 mph 21.9 mph N/A   Scattered Clouds
1:53 PM 46.0 °F 38.8 °F 36.0 °F 68% 30.26 in 10.0 mi SW 18.4 mph 21.9 mph N/A   Overcast
2:53 PM 46.0 °F 40.2 °F 33.1 °F 61% 30.25 in 10.0 mi WSW 12.7 mph 21.9 mph N/A   Mostly Cloudy
3:53 PM 45.0 °F 38.5 °F 32.0 °F 60% 30.25 in 10.0 mi WSW 13.8 mph 21.9 mph N/A   Mostly Cloudy
4:53 PM 43.0 °F 35.4 °F 35.1 °F 74% 30.26 in 10.0 mi SW 16.1 mph - N/A   Overcast
5:20 PM 42.8 °F 38.0 °F 35.6 °F 76% 30.25 in 10.0 mi WNW 8.1 mph 17.3 mph 0.01 in Rain Light Rain
5:29 PM 42.8 °F 38.6 °F 35.6 °F 76% 30.25 in 10.0 mi West 6.9 mph - 0.01 in Rain Light Rain
5:53 PM 41.0 °F 35.8 °F 35.1 °F 79% 30.25 in 10.0 mi WSW 8.1 mph - 0.01 in Rain Light Rain
6:53 PM 42.1 °F 35.2 °F 35.1 °F 76% 30.24 in 10.0 mi West 12.7 mph 23.0 mph 0.00 in   Overcast
7:53 PM 42.1 °F 35.7 °F 35.1 °F 76% 30.24 in 10.0 mi WSW 11.5 mph - N/A   Overcast
8:53 PM 41.0 °F 37.1 °F 36.0 °F 82% 30.24 in 10.0 mi NW 5.8 mph - N/A   Overcast
9:53 PM 41.0 °F 36.4 °F 37.0 °F 86% 30.25 in 10.0 mi Variable 6.9 mph - 0.02 in   Overcast
10:05 PM 41.0 °F 32.8 °F 35.6 °F 81% 30.24 in 8.0 mi West 16.1 mph 19.6 mph 0.01 in Rain Light Rain
10:33 PM 41.0 °F 35.2 °F 35.6 °F 81% 30.23 in 10.0 mi WSW 9.2 mph - 0.02 in Rain Light Rain
10:53 PM 42.1 °F 36.6 °F 37.0 °F 82% 30.24 in 10.0 mi WSW 9.2 mph - 0.02 in   Overcast
11:12 PM 41.0 °F 39.0 °F 37.4 °F 87% 30.23 in 10.0 mi Variable 3.5 mph - N/A   Overcast
11:19 PM 41.0 °F - 37.4 °F 87% 30.23 in 10.0 mi Calm Calm - N/A   Overcast
11:38 PM 41.0 °F - 37.4 °F 87% 30.23 in 10.0 mi Calm Calm - N/A   Overcast
11:53 PM 42.1 °F 36.6 °F 37.9 °F 85% 30.24 in 5.0 mi WSW 9.2 mph - 0.02 in Rain Light Rain